Vorticity
6 6 5 7 13 11 12 8 4 7 4 9 6 9 8 16 13 11 11 9 12 11 10 16 16 14 14 12 5 -26 32 32 13 9 13 12 13 6 2 2 4 2 2 2 0 0 6
6 5 6 7 13 10 12 7 4 4 9 1 9 6 9 14 16 14 9 9 11 12 12 13 13 10 7 6 11 17 -2 31 17 10 5 6 6 7 11 4 5 2 7 6 3 4 3
5 6 5 6 9 11 12 6 1 12 19 18 6 8 7 21 22 10 9 6 5 8 13 12 20 7 10 13 8 20 -9 18 21 10 11 4 6 4 4 12 6 6 5 4 7 3 7
5 6 6 6 8 13 12 8 2 3 2 8 2 6 11 14 15 18 8 7 7 11 9 9 20 13 6 4 15 20 7 -3 29 9 11 12 10 12 2 21 -19 27 9 3 9 13 5
5 5 6 5 8 10 13 9 2 11 2 10 3 6 18 10 17 3 17 7 11 11 9 7 10 8 13 13 13 8 32 -7 37 8 10 6 6 9 -3 -3 10 9 -3 16 19 19 8
5 5 6 6 4 8 16 11 6 -2 11 12 12 10 14 12 17 5 19 18 15 13 9 8 5 -0 -10 33 18 16 32 -0 30 10 13 -3 6 5 8 -2 11 3 4 -2 3 6 -12
5 5 5 6 6 9 15 12 9 2 11 13 10 18 15 11 15 0 30 7 4 1 10 0 -2 7 -30 25 27 15 29 15 18 13 4 3 1 5 6 -5 4 20 -8 6 9 3 16
4 5 5 7 6 5 9 14 12 2 10 12 -1 11 15 14 14 3 16 22 -1 11 14 16 12 4 12 -9 30 16 18 12 6 14 1 4 8 -5 1 11 4 -20 10 8 3 2 -9
4 5 5 8 7 6 8 13 14 10 9 3 -2 5 17 13 14 5 6 15 23 5 -5 20 14 4 28 -14 15 21 8 6 12 23 -8 1 58 -10 -3 1 10 1 -2 0 -4 -12 -3
4 5 5 9 7 7 6 8 14 12 -1 14 13 2 22 21 8 17 8 19 19 32 -9 21 24 11 25 -8 16 25 2 -2 23 28 -11 9 -42 42 19 1 -2 -2 7 0 3 2 15
5 5 5 9 8 7 4 7 13 13 11 -0 10 14 -8 20 34 9 16 16 10 -11 14 29 21 9 19 6 38 27 2 -18 50 23 -27 4 43 0 8 -15 16 3 2 3 4 6 9
7 4 5 9 9 8 6 7 4 13 12 13 -5 13 -1 17 -26 6 14 17 19 -15 26 1 24 30 10 11 23 19 10 -3 15 28 -16 -9 6 17 -12 11 2 24 -5 1 20 7 32
7 4 4 8 11 8 8 4 10 7 13 11 12 0 9 19 12 15 -0 19 -18 -7 48 31 15 24 3 6 18 25 15 -0 -2 18 8 7 16 13 15 -9 7 10 16 15 12 15 3
7 6 4 7 11 10 8 6 7 7 13 11 11 9 7 7 51 2 26 33 -9 32 -13 39 27 10 -6 8 10 16 2 12 18 15 -0 -5 50 25 20 21 -19 8 -7 -9 7 7 0
8 6 3 7 8 11 9 8 7 7 12 13 9 12 14 5 39 -2 46 -25 -7 16 24 5 15 8 5 -1 33 19 -16 -3 8 15 -57 3 -1 2 -1 7 8 50 5 -33 -11 9 13
7 8 3 6 8 10 10 10 5 6 11 12 12 16 10 7 28 -0 15 -23 19 9 20 35 -14 -1 8 21 40 -8 8 59 17 18 -27 23 14 36 11 13 24 -19 7 17 1 9 9
6 7 4 6 8 10 11 12 5 6 13 11 15 12 11 6 59 18 2 9 28 17 20 -13 15 19 5 16 24 12 13 56 11 15 -44 28 1 43 12 24 6 13 32 -26 26 -24 10
7 7 5 6 9 9 12 12 5 7 13 13 4 15 7 18 14 12 6 19 25 10 16 -4 -1 3 14 29 31 -20 49 24 19 7 -17 -2 27 20 -5 -2 9 10 -1 10 -23 12 13
7 7 6 6 8 8 12 12 7 9 13 11 17 11 8 20 -4 18 20 37 20 3 -4 -7 6 9 12 3 -3 -14 -4 42 23 7 -30 6 44 -12 36 9 26 5 1 3 7 6 11
8 7 7 5 9 8 11 13 7 7 15 13 -2 0 6 18 11 9 4 21 2 -11 15 12 15 7 27 12 23 -6 15 34 11 17 25 -5 31 -8 -10 18 -2 7 2 8 7 -5 -6
7 6 7 5 10 7 10 14 8 6 17 11 -7 5 2 -5 17 22 -4 51 7 19 23 16 31 16 -6 -1 11 32 -5 16 30 -16 -17 16 4 8 22 3 42 -1 2 14 -2 5 -21
11 7 7 5 10 6 9 13 10 5 11 20 5 5 6 19 25 18 5 9 26 16 -4 32 22 3 11 -1 8 12 12 11 13 -17 4 1 24 9 17 11 14 18 20 23 16 10 7
11 8 8 5 9 6 10 12 11 7 10 13 10 5 9 23 20 3 2 28 44 10 17 27 20 -10 7 0 19 19 24 12 31 0 -6 -12 -10 8 11 12 11 27 6 11 23 18 14
10 9 8 7 9 6 9 9 13 8 7 12 12 4 9 2 12 12 13 9 33 -1 11 11 16 -17 5 -4 23 16 22 8 43 1 15 -4 2 4 16 10 4 9 17 28 0 19 12
8 9 7 7 7 7 9 10 13 11 6 9 13 6 11 2 19 13 17 1 8 10 10 6 23 41 -34 13 3 -12 15 9 25 22 11 4 14 5 5 9 -1 9 17 12 15 17 17
7 11 7 8 7 8 9 11 9 14 9 7 15 5 12 -8 26 6 23 20 4 17 30 -6 -4 20 18 23 4 11 7 9 15 15 8 9 7 -10 13 6 -4 20 23 14 11 5 16
5 13 8 9 7 8 9 11 8 15 11 7 13 8 9 -4 4 18 8 11 11 15 8 10 9 8 1 -6 -8 8 13 17 6 3 36 1 10 3 -7 -3 18 15 16 20 -0 4 26
7 12 8 10 7 9 8 12 9 15 11 11 12 11 8 3 -8 15 13 10 20 2 7 16 14 13 16 -6 -4 0 18 7 -0 10 15 11 -4 25 20 10 19 9 15 -4 7 15 12
-4 15 10 9 7 9 7 13 10 13 12 12 7 12 9 6 3 14 11 9 10 3 17 20 -12 37 26 0 0 21 -7 19 -2 8 3 17 -8 10 -1 27 2 23 11 23 -1 -2 2
Height
3083 3079 3075 3070 3066 3063 3059 3056 3053 3049 3045 3041 3038 3034 3033 3031 3031 3031 3031 3032 3033 3035 3036 3039 3042 3045 3046 3046 3047 3057 3059 3066 3075 3077 3084 3094 3102 3111 3113 3118 3122 3122 3126 3130 3131 3132 3133
3079 3075 3072 3068 3063 3059 3055 3051 3049 3045 3041 3037 3031 3030 3029 3027 3026 3027 3027 3028 3029 3031 3033 3034 3036 3038 3040 3039 3045 3054 3057 3060 3067 3072 3080 3090 3099 3108 3111 3115 3119 3120 3125 3126 3128 3130 3129
3076 3072 3068 3064 3060 3056 3053 3048 3045 3042 3038 3034 3028 3026 3024 3022 3022 3022 3023 3025 3026 3027 3028 3030 3032 3032 3032 3035 3037 3045 3051 3056 3059 3069 3077 3087 3096 3103 3108 3113 3116 3120 3122 3124 3125 3126 3126
3072 3069 3065 3061 3056 3052 3050 3045 3042 3038 3034 3031 3025 3022 3020 3018 3018 3018 3020 3021 3023 3025 3025 3026 3027 3026 3024 3026 3036 3039 3046 3052 3057 3065 3074 3086 3094 3100 3104 3108 3113 3117 3120 3120 3121 3123 3124
3067 3065 3061 3057 3053 3048 3046 3041 3037 3034 3032 3027 3022 3019 3016 3014 3014 3015 3016 3017 3019 3020 3021 3022 3023 3023 3020 3026 3031 3037 3041 3048 3053 3060 3070 3083 3089 3095 3102 3104 3111 3113 3115 3117 3119 3120 3120
3062 3060 3057 3053 3049 3045 3042 3037 3033 3031 3028 3023 3018 3015 3011 3011 3010 3011 3011 3012 3013 3014 3015 3017 3019 3023 3021 3023 3028 3032 3037 3044 3050 3058 3068 3077 3082 3088 3094 3099 3102 3108 3112 3114 3115 3118 3116
3057 3055 3052 3049 3044 3041 3038 3033 3030 3027 3025 3020 3015 3011 3008 3006 3005 3006 3006 3005 3007 3008 3007 3010 3013 3015 3018 3020 3023 3028 3034 3041 3047 3054 3059 3069 3075 3076 3086 3095 3103 3107 3110 3112 3113 3116 3113
3053 3050 3048 3044 3040 3037 3034 3030 3027 3023 3022 3017 3012 3007 3003 3001 3001 3001 2999 3000 3001 3006 3005 3006 3009 3011 3017 3018 3020 3025 3032 3038 3042 3047 3061 3068 3068 3078 3089 3095 3100 3105 3107 3109 3111 3112 3111
3047 3045 3043 3040 3037 3033 3030 3026 3023 3020 3017 3013 3009 3005 3000 2998 2997 2996 2996 2997 2996 2999 3002 3002 3005 3009 3013 3017 3017 3022 3028 3035 3040 3049 3055 3062 3068 3079 3085 3091 3097 3102 3105 3108 3109 3109 3109
3041 3040 3038 3035 3032 3029 3025 3022 3019 3016 3014 3011 3008 3004 2998 2994 2994 2993 2992 2992 2995 2996 3001 2998 2999 3004 3008 3013 3015 3020 3028 3037 3041 3046 3057 3064 3070 3073 3081 3087 3094 3099 3103 3107 3108 3110 3107
3036 3035 3033 3031 3028 3025 3022 3018 3016 3012 3010 3008 3006 3001 2997 2990 2990 2990 2991 2989 2992 2995 2996 2994 2996 3002 3006 3010 3015 3017 3029 3036 3040 3044 3056 3061 3066 3071 3077 3084 3091 3096 3103 3106 3107 3108 3105
3030 3030 3028 3026 3023 3021 3018 3014 3012 3008 3006 3004 3004 3000 2995 2989 2989 2987 2987 2988 2992 2996 2988 2989 2993 2996 3002 3008 3013 3020 3026 3035 3041 3049 3056 3060 3066 3071 3078 3085 3090 3096 3101 3102 3105 3106 3102
3024 3023 3023 3021 3019 3016 3014 3011 3008 3005 3003 3001 3000 2998 2993 2987 2987 2985 2985 2987 2993 2990 2988 2989 2990 2995 3001 3005 3011 3017 3022 3028 3031 3044 3054 3060 3064 3069 3074 3082 3087 3091 3098 3102 3105 3104 3097
3018 3017 3017 3016 3015 3011 3010 3007 3005 3001 2999 2998 2998 2995 2994 2989 2984 2983 2983 2987 2989 2981 2982 2985 2989 2996 3001 3006 3011 3017 3023 3028 3031 3037 3049 3055 3065 3064 3068 3075 3081 3086 3092 3094 3098 3099 3093
3011 3011 3011 3011 3009 3007 3005 3004 3002 2998 2996 2995 2994 2993 2991 2987 2982 2980 2983 2984 2981 2979 2980 2984 2991 2996 3000 3004 3010 3017 3020 3024 3029 3036 3044 3053 3059 3064 3067 3073 3080 3082 3086 3092 3093 3093 3092
3004 3005 3005 3005 3004 3002 3000 3000 2998 2996 2994 2993 2991 2990 2988 2984 2980 2978 2980 2979 2975 2978 2980 2983 2986 2992 2998 3001 3008 3013 3019 3020 3026 3036 3045 3049 3056 3060 3067 3073 3078 3081 3087 3091 3092 3092 3091
2997 2998 2999 2999 2998 2997 2996 2996 2995 2993 2991 2990 2989 2988 2987 2984 2979 2978 2976 2976 2975 2977 2982 2986 2988 2991 2997 3000 3005 3010 3016 3019 3024 3033 3043 3047 3052 3061 3066 3067 3070 3078 3079 3083 3086 3087 3086
2989 2991 2993 2994 2993 2992 2991 2991 2991 2990 2989 2988 2987 2987 2985 2983 2979 2977 2974 2973 2975 2979 2983 2985 2989 2992 2995 3001 3006 3008 3012 3017 3023 3030 3039 3046 3050 3056 3062 3066 3071 3074 3076 3078 3079 3083 3083
2981 2984 2986 2988 2988 2988 2987 2987 2987 2987 2986 2986 2985 2986 2985 2982 2979 2977 2974 2973 2976 2979 2982 2985 2988 2991 2995 3000 3008 3011 3012 3017 3022 3030 3036 3043 3047 3054 3062 3066 3065 3067 3070 3074 3077 3079 3077
2974 2977 2979 2982 2982 2983 2982 2982 2982 2983 2983 2985 2985 2985 2983 2981 2979 2977 2975 2976 2976 2977 2980 2982 2987 2991 2995 3002 3004 3009 3014 3019 3024 3032 3038 3043 3044 3046 3048 3052 3059 3061 3064 3068 3073 3073 3074
2966 2970 2972 2975 2977 2977 2978 2978 2978 2979 2980 2982 2982 2983 2982 2980 2979 2976 2975 2974 2975 2976 2979 2983 2987 2989 2994 2999 3002 3008 3014 3017 3025 3031 3036 3042 3043 3046 3048 3051 3053 3055 3059 3062 3064 3067 3069
2959 2963 2965 2969 2971 2972 2973 2974 2974 2975 2976 2978 2979 2980 2980 2978 2977 2976 2975 2974 2974 2975 2979 2982 2986 2992 2996 2999 3001 3004 3010 3016 3020 3029 3035 3038 3040 3042 3045 3047 3050 3051 3054 3056 3059 3061 3063
2952 2956 2959 2961 2965 2967 2968 2969 2969 2972 2973 2974 2976 2977 2978 2977 2977 2977 2977 2976 2975 2978 2980 2984 2988 2993 2996 3000 3002 3009 3014 3018 3021 3026 3030 3036 3038 3041 3043 3045 3048 3050 3048 3049 3051 3053 3056
2943 2948 2952 2955 2959 2961 2963 2965 2965 2968 2969 2972 2973 2975 2976 2976 2977 2978 2978 2978 2978 2980 2983 2986 2991 2995 3000 3003 3006 3011 3016 3021 3024 3027 3031 3033 3037 3040 3041 3045 3049 3042 3042 3044 3047 3048 3049
2936 2941 2946 2949 2952 2955 2957 2960 2961 2963 2965 2968 2970 2972 2974 2975 2976 2978 2978 2979 2981 2983 2986 2988 2992 2995 2999 3004 3007 3011 3016 3020 3022 3026 3029 3032 3034 3036 3038 3040 3039 3038 3038 3039 3040 3043 3044
2929 2933 2939 2942 2946 2950 2952 2955 2956 2959 2961 2965 2967 2969 2973 2975 2976 2977 2978 2980 2981 2984 2985 2989 2993 2996 2999 3003 3006 3009 3012 3016 3020 3023 3024 3027 3029 3033 3034 3035 3035 3032 3033 3036 3038 3039 3039
2922 2927 2932 2936 2941 2944 2947 2950 2952 2955 2957 2961 2964 2967 2971 2973 2974 2976 2978 2980 2982 2984 2986 2989 2993 2997 3001 3003 3007 3010 3013 3014 3016 3017 3020 3023 3026 3028 3031 3032 3031 3030 3031 3034 3039 3038 3035
2915 2920 2925 2931 2935 2939 2942 2946 2947 2951 2953 2958 2961 2964 2968 2971 2973 2975 2978 2980 2982 2985 2988 2990 2994 2996 2999 3003 3005 3005 3007 3010 3012 3014 3015 3019 3022 3025 3029 3030 3029 3027 3029 3032 3032 3031 3033
2908 2914 2920 2925 2930 2933 2937 2941 2943 2946 2950 2954 2958 2961 2964 2969 2972 2973 2976 2980 2982 2985 2987 2989 2992 2994 2997 3001 3003 3004 3005 3007 3009 3011 3013 3017 3019 3020 3024 3023 3022 3023 3024 3026 3027 3029 3030